• In Uzbekistan
  • List of Countries
  • For 7 days
  • Water Temperature
  • Satellite Maps
  • Weather Map
  • Weather Widgets
  • user-avatar
    Login

    Hourly Weather La Trinitaria

    Today, 26 April, Thursday

    Time Temperature Precipitation Wind Pressure Humidity
    00:00 +18°C° 0.1 mm 0 mps 634 mmHg 67%
    01:00 +18°C° 0 mm 0 mps 634 mmHg 67%
    02:00 +20°C° 0 mm 1 mps 633 mmHg 68%
    03:00 +19°C° 0 mm 1 mps 633 mmHg 68%
    04:00 +17°C° 0 mm 0 mps 633 mmHg 69%
    05:00 +17°C° 0 mm 0 mps 633 mmHg 69%
    06:00 +17°C° 0 mm 0 mps 633 mmHg 69%
    07:00 +21°C° 0 mm 1 mps 634 mmHg 61%
    08:00 +24°C° 0 mm 1 mps 635 mmHg 52%
    09:00 +26°C° 0 mm 1 mps 636 mmHg 43%
    10:00 +28°C° 0.1 mm 1 mps 637 mmHg 40%
    11:00 +29°C° 0.1 mm 1 mps 637 mmHg 36%
    12:00 +30°C° 0.1 mm 2 mps 637 mmHg 32%
    13:00 +30°C° 0.5 mm 2 mps 636 mmHg 36%
    14:00 +29°C° 0.5 mm 2 mps 635 mmHg 40%
    15:00 +28°C° 0.5 mm 2 mps 634 mmHg 44%
    16:00 +26°C° 2.1 mm 2 mps 634 mmHg 51%
    17:00 +24°C° 2.1 mm 2 mps 634 mmHg 59%
    18:00 +23°C° 2.1 mm 2 mps 633 mmHg 66%
    19:00 +21°C° 1.9 mm 2 mps 633 mmHg 70%
    20:00 +21°C° 1.9 mm 1 mps 634 mmHg 74%
    21:00 +20°C° 1.9 mm 1 mps 634 mmHg 77%
    22:00 +20°C° 0.2 mm 1 mps 634 mmHg 77%
    23:00 +19°C° 0.2 mm 1 mps 634 mmHg 77%

    Tomorrow, 27 April, Friday

    Time Temperature Precipitation Wind Pressure Humidity
    00:00 +17°C° 0.2 mm 0 mps 634 mmHg 77%
    01:00 +17°C° 0.1 mm 0 mps 634 mmHg 77%
    02:00 +17°C° 0.1 mm 0 mps 633 mmHg 76%
    03:00 +17°C° 0.1 mm 0 mps 633 mmHg 76%
    04:00 +16°C° 0 mm 0 mps 633 mmHg 77%
    05:00 +18°C° 0 mm 1 mps 633 mmHg 77%
    06:00 +18°C° 0 mm 1 mps 633 mmHg 78%
    07:00 +18°C° 0 mm 0 mps 634 mmHg 68%
    08:00 +21°C° 0 mm 0 mps 635 mmHg 58%
    09:00 +24°C° 0 mm 0 mps 636 mmHg 49%
    10:00 +27°C° 0 mm 1 mps 636 mmHg 44%
    11:00 +29°C° 0 mm 1 mps 636 mmHg 39%
    12:00 +31°C° 0 mm 1 mps 637 mmHg 34%
    13:00 +31°C° 0.1 mm 1 mps 636 mmHg 35%
    14:00 +30°C° 0.1 mm 1 mps 635 mmHg 35%
    15:00 +30°C° 0.1 mm 1 mps 635 mmHg 36%
    16:00 +28°C° 0.4 mm 2 mps 634 mmHg 43%
    17:00 +26°C° 0.4 mm 2 mps 634 mmHg 50%
    18:00 +25°C° 0.4 mm 2 mps 633 mmHg 57%
    19:00 +24°C° 0.5 mm 2 mps 634 mmHg 61%
    20:00 +21°C° 0.5 mm 2 mps 634 mmHg 66%
    21:00 +21°C° 0.5 mm 1 mps 634 mmHg 71%
    22:00 +21°C° 0.3 mm 1 mps 634 mmHg 72%
    23:00 +20°C° 0.3 mm 1 mps 634 mmHg 73%

    Day after tomorrow, 28 April, Saturday

    Time Temperature Precipitation Wind Pressure Humidity
    00:00 +20°C° 0.3 mm 1 mps 634 mmHg 74%
    01:00 +20°C° 0.1 mm 1 mps 634 mmHg 76%
    02:00 +19°C° 0.1 mm 1 mps 633 mmHg 77%
    03:00 +19°C° 0.1 mm 1 mps 633 mmHg 78%
    04:00 +18°C° 0 mm 1 mps 633 mmHg 79%
    05:00 +18°C° 0 mm 1 mps 633 mmHg 80%
    06:00 +18°C° 0 mm 1 mps 633 mmHg 81%
    07:00 +20°C° 0 mm 1 mps 634 mmHg 72%
    08:00 +22°C° 0 mm 1 mps 635 mmHg 63%
    09:00 +25°C° 0 mm 1 mps 636 mmHg 55%
    10:00 +26°C° 0 mm 1 mps 636 mmHg 49%
    11:00 +28°C° 0 mm 1 mps 637 mmHg 44%
    12:00 +30°C° 0 mm 2 mps 637 mmHg 39%
    13:00 +29°C° 0.3 mm 2 mps 636 mmHg 41%
    14:00 +29°C° 0.3 mm 2 mps 636 mmHg 43%
    15:00 +29°C° 0.3 mm 2 mps 635 mmHg 44%
    16:00 +27°C° 0.6 mm 2 mps 635 mmHg 51%
    17:00 +25°C° 0.6 mm 2 mps 634 mmHg 57%
    18:00 +24°C° 0.6 mm 2 mps 634 mmHg 63%
    19:00 +23°C° 0.5 mm 2 mps 634 mmHg 66%
    20:00 +21°C° 0.5 mm 2 mps 635 mmHg 70%
    21:00 +21°C° 0.5 mm 1 mps 635 mmHg 74%
    22:00 +21°C° 0.5 mm 1 mps 635 mmHg 75%
    23:00 +20°C° 0.5 mm 1 mps 635 mmHg 75%

    29 April, Sunday

    Time Temperature Precipitation Wind Pressure Humidity
    00:00 +20°C° 0.5 mm 1 mps 635 mmHg 76%
    01:00 +20°C° 0.3 mm 1 mps 635 mmHg 77%
    02:00 +20°C° 0.3 mm 1 mps 634 mmHg 78%
    03:00 +19°C° 0.3 mm 1 mps 634 mmHg 78%
    04:00 +19°C° 0.1 mm 1 mps 634 mmHg 79%
    05:00 +19°C° 0.1 mm 1 mps 634 mmHg 79%
    06:00 +19°C° 0.1 mm 1 mps 634 mmHg 80%
    07:00 +21°C° 0 mm 1 mps 635 mmHg 72%
    08:00 +23°C° 0 mm 1 mps 636 mmHg 64%
    09:00 +25°C° 0 mm 1 mps 637 mmHg 55%
    10:00 +27°C° 0 mm 1 mps 638 mmHg 49%
    11:00 +29°C° 0 mm 1 mps 638 mmHg 44%
    12:00 +30°C° 0 mm 1 mps 638 mmHg 38%
    13:00 +30°C° 0.2 mm 2 mps 637 mmHg 38%
    14:00 +30°C° 0.2 mm 2 mps 637 mmHg 39%
    15:00 +30°C° 0.2 mm 2 mps 636 mmHg 39%
    16:00 +28°C° 0.3 mm 2 mps 636 mmHg 46%
    17:00 +26°C° 0.3 mm 2 mps 635 mmHg 52%
    18:00 +25°C° 0.3 mm 3 mps 635 mmHg 59%
    19:00 +23°C° 0.2 mm 2 mps 635 mmHg 63%
    20:00 +21°C° 0.2 mm 2 mps 635 mmHg 67%
    21:00 +20°C° 0.2 mm 2 mps 636 mmHg 71%
    22:00 +20°C° 0.1 mm 2 mps 636 mmHg 72%
    23:00 +19°C° 0.1 mm 2 mps 636 mmHg 74%

    30 April, Monday

    Time Temperature Precipitation Wind Pressure Humidity
    00:00 +19°C° 0.1 mm 2 mps 636 mmHg 75%
    01:00 +20°C° 0 mm 1 mps 635 mmHg 76%
    02:00 +19°C° 0 mm 1 mps 635 mmHg 77%
    03:00 +19°C° 0 mm 1 mps 634 mmHg 78%
    04:00 +19°C° 0 mm 1 mps 634 mmHg 78%
    05:00 +19°C° 0 mm 1 mps 634 mmHg 78%
    06:00 +18°C° 0 mm 1 mps 635 mmHg 78%
    07:00 +20°C° 0 mm 1 mps 635 mmHg 70%
    08:00 +23°C° 0 mm 1 mps 636 mmHg 61%
    09:00 +25°C° 0 mm 1 mps 637 mmHg 53%
    10:00 +26°C° 0 mm 1 mps 638 mmHg 47%
    11:00 +28°C° 0 mm 2 mps 638 mmHg 41%
    12:00 +30°C° 0 mm 2 mps 638 mmHg 35%
    13:00 +30°C° 0.1 mm 2 mps 637 mmHg 34%
    14:00 +30°C° 0.1 mm 2 mps 637 mmHg 33%
    15:00 +30°C° 0.1 mm 2 mps 636 mmHg 33%
    16:00 +28°C° 0.1 mm 2 mps 636 mmHg 39%
    17:00 +26°C° 0.1 mm 2 mps 635 mmHg 45%
    18:00 +25°C° 0.1 mm 2 mps 635 mmHg 51%
    19:00 +23°C° 0 mm 2 mps 635 mmHg 57%
    20:00 +21°C° 0 mm 2 mps 635 mmHg 63%
    21:00 +20°C° 0 mm 2 mps 635 mmHg 70%
    22:00 +19°C° 0 mm 2 mps 635 mmHg 71%
    23:00 +20°C° 0 mm 1 mps 635 mmHg 72%

    1 May, Tuesday

    Time Temperature Precipitation Wind Pressure Humidity
    00:00 +19°C° 0 mm 1 mps 635 mmHg 73%
    01:00 +19°C° 0 mm 1 mps 634 mmHg 73%
    02:00 +19°C° 0 mm 1 mps 634 mmHg 73%
    03:00 +19°C° 0 mm 1 mps 633 mmHg 73%
    04:00 +19°C° 0 mm 1 mps 634 mmHg 73%
    05:00 +19°C° 0 mm 1 mps 634 mmHg 73%
    06:00 +19°C° 0 mm 1 mps 634 mmHg 73%
    07:00 +21°C° 0 mm 1 mps 635 mmHg 65%
    08:00 +23°C° 0 mm 1 mps 636 mmHg 56%
    09:00 +25°C° 0 mm 1 mps 637 mmHg 48%
    10:00 +27°C° 0 mm 1 mps 637 mmHg 43%
    11:00 +29°C° 0 mm 1 mps 638 mmHg 38%
    12:00 +31°C° 0 mm 1 mps 638 mmHg 33%
    13:00 +30°C° 0 mm 1 mps 637 mmHg 33%
    14:00 +30°C° 0 mm 2 mps 637 mmHg 34%
    15:00 +30°C° 0 mm 2 mps 636 mmHg 34%
    16:00 +28°C° 0.1 mm 2 mps 636 mmHg 42%
    17:00 +27°C° 0.1 mm 2 mps 635 mmHg 49%
    18:00 +25°C° 0.1 mm 2 mps 635 mmHg 56%
    19:00 +24°C° 0.1 mm 2 mps 635 mmHg 62%
    20:00 +21°C° 0.1 mm 2 mps 635 mmHg 67%
    21:00 +21°C° 0.1 mm 1 mps 635 mmHg 73%
    22:00 +21°C° 0 mm 1 mps 635 mmHg 73%
    23:00 +20°C° 0 mm 1 mps 635 mmHg 72%
    Show more